[[{"header":{"parameterUnit":"m.s-1","parameterCategory":1,"la1":30.2991,"la2":30.254,"lo1":-89.0895,"lo2":-89.0444,"dy":0.0017,"dx":0.0017,"nx":28,"ny":28,"refTime":"2025-08-29T03:00:00:Z","depth":0,"parameterNumber":2,"parameterNumberName":"U-component_of_WINDS"},"data":[0,0,0,0,0,0,0,0,0,0,0,0,0,0,0,0,0,0,0,0,0,0,0,0,0,0,0,0,0,0,0,0,0,0,0,0,0,0,0,0,0,0,0,0,0,0,0,0,0,0,0,0,0,0,0,0,0,0,2.6785,2.6786,0,2.6893,2.6894,2.6896,2.6895,2.6894,2.6892,2.6891,2.7007,2.7011,2.7016,0,0,0,0,0,0,0,0,0,0,0,0,0,2.6585,2.6589,2.6785,2.6786,2.6788,2.6893,2.6894,2.6896,2.6895,2.6894,2.6892,2.689,2.7006,2.7011,2.7016,0,0,0,0,0,0,0,0,0,0,0,0,0,2.668,2.659,2.6785,2.68,2.6802,2.6893,2.6894,2.6896,2.6896,2.6894,2.6891,2.6889,2.7004,2.701,2.7017,2.7101,0,0,2.7037,2.704,0,0,0,0,0,0,0,0,2.6675,2.6688,2.6796,2.6799,2.6802,2.6878,2.6867,2.6965,2.6896,2.686,2.6891,2.6888,2.6966,2.6976,2.7001,2.7106,2.7111,2.7038,2.7042,2.7045,2.7047,0,0,0,0,0,0,0,2.6668,2.6683,2.6828,2.6798,2.6801,2.6804,2.6815,2.6885,2.6924,2.6863,2.6864,2.6876,2.6968,2.6995,2.7004,2.7113,2.7038,2.7044,2.7048,2.705,2.7296,2.7299,0,0,0,0,0,0,2.6658,2.6678,2.6824,2.6831,2.6732,2.6809,2.6821,2.6856,2.6923,2.6932,2.6878,2.6876,2.6984,2.6996,2.7008,2.7113,2.7045,2.7051,2.7055,2.7294,2.7297,2.73,0,0,0,0,0,0,2.6654,2.6671,2.682,2.6755,2.6774,2.6815,2.6854,2.6859,2.6886,2.6934,2.6942,2.6898,2.6983,2.6999,2.7078,2.7117,2.7054,2.706,2.7291,2.7295,2.7298,2.7322,0,0,0,0,0,0,2.6648,2.6669,2.67,2.6755,2.6777,2.6886,2.6856,2.6863,2.6897,2.6895,2.6955,2.6963,2.6983,2.7068,2.7085,2.7125,2.7065,2.7288,2.7293,2.7297,2.7318,2.7327,2.7334,0,0,0,0,0,2.6641,2.6703,2.6701,2.6719,2.6816,2.6889,2.6901,2.6921,2.69,2.6933,2.6964,2.6961,2.711,2.7076,2.7095,2.7138,2.7285,2.7291,2.7297,2.7315,2.7325,2.7333,0,0,0,0,0,0,2.6653,2.671,2.6709,2.6791,2.6835,2.6888,2.693,2.6931,2.6983,2.6979,2.7003,2.7016,2.7097,2.7125,2.7087,2.7224,2.7195,2.7205,2.7203,2.7213,2.722,2.7213,2.7071,0,0,0,0,0,2.6664,2.6716,2.6765,2.6832,2.6854,2.6888,2.6921,2.6932,2.6979,2.6998,2.7035,2.7083,2.714,2.7178,2.7233,2.7322,2.7337,2.7361,2.7369,2.7375,2.7384,2.7436,2.7448,2.7319,2.7319,2.7318,0,0,2.669,2.6728,2.676,2.6836,2.6871,2.6927,2.6904,2.6963,2.7006,2.7008,2.7085,2.7114,2.7169,2.7255,2.7294,2.7281,2.7422,2.7382,2.7386,2.7392,2.7443,2.7455,2.7466,2.7323,2.7322,2.7321,0,0,2.6765,2.6798,2.6859,2.6895,2.6948,2.6971,2.6985,2.704,2.7059,2.7136,2.7139,2.7192,2.729,2.7329,2.7363,2.7455,2.7456,2.7473,2.7513,2.7564,2.7574,2.7584,2.762,2.7632,2.7481,2.7481,2.7481,0,2.6791,2.6873,2.6891,2.6951,2.6986,2.6989,2.7052,2.7087,2.7157,2.7182,2.7165,2.729,2.7327,2.7423,2.7446,2.7472,2.7492,2.7467,2.7571,2.7581,2.7589,2.7624,2.7637,2.7483,2.7483,2.7483,2.7483,0,2.6904,2.6961,2.7004,2.707,2.711,2.7171,2.7201,2.7239,2.7248,2.7273,2.7354,2.7398,2.7464,2.7488,2.7497,2.7586,2.7577,2.7565,2.7537,2.7603,2.7636,2.765,2.7486,2.7485,2.7485,2.7484,0,0,2.699,2.7065,2.7081,2.7112,2.7172,2.7218,2.7281,2.7344,2.7378,2.7426,2.7482,2.7566,2.7556,2.7594,2.7608,2.7652,2.7726,2.7636,2.7638,2.7653,2.7831,2.7841,2.7856,2.7726,2.7729,2.7731,2.7828,0,2.7073,2.7183,2.7202,2.73,2.7355,2.7359,2.7415,2.7459,2.7484,2.7537,2.7566,2.7626,2.7607,2.7631,2.7674,2.7708,2.7763,2.7701,2.7782,2.7784,2.7769,2.7872,2.7882,2.7971,2.784,2.7842,2.7844,0,2.7185,2.7236,2.7339,2.7393,2.7417,2.7466,2.7527,2.7576,2.7628,2.7643,2.7686,2.7695,2.7764,2.7732,2.7829,2.7786,2.7821,2.7843,2.7847,2.7857,2.7819,2.7888,2.8,2.8014,2.7864,2.7862,2.7861,0,2.7241,2.7335,2.7409,2.7435,2.75,2.7535,2.7564,2.7613,2.7651,2.7704,2.773,2.7791,2.7826,2.7874,2.7901,2.7874,2.7998,2.7967,2.8016,2.8015,2.8043,2.8041,2.8164,2.8061,2.8061,2.8061,2.806,0,2.7334,2.7397,2.7435,2.7481,2.7553,2.7575,2.7647,2.7676,2.772,2.7774,2.7781,2.7832,2.7863,2.7919,2.7941,2.802,2.8035,2.8052,2.8057,2.8053,2.8051,2.8077,2.8072,2.8064,2.8063,2.8063,2.8062,0,2.7409,2.7436,2.7518,2.7572,2.7588,2.7639,2.7687,2.7734,2.7759,2.7827,2.7845,2.7886,2.7953,2.7984,2.8067,2.8081,2.8172,2.8172,2.8155,2.8157,2.8205,2.8201,2.8352,2.8374,2.8253,2.8254,2.8255,0,2.7467,2.7516,2.7576,2.7611,2.7641,2.7698,2.7737,2.7761,2.7801,2.7864,2.7904,2.7971,2.8026,2.8133,2.8172,2.8236,2.824,2.8288,2.825,2.8244,2.8244,2.8242,2.8248,2.8296,2.8297,2.8298,2.8298,0,2.7568,2.758,2.7634,2.7693,2.7738,2.7787,2.7834,2.7864,2.7896,2.7941,2.8009,2.8051,2.8136,2.8204,2.8271,2.8304,2.8308,2.831,2.8325,2.8322,2.8311,2.8321,2.8176,2.8307,2.8306,2.8305,2.8305,2.8305,2.7639,2.7684,2.7733,2.7794,2.7832,2.7876,2.7923,2.7955,2.8011,2.8081,2.8092,2.8165,2.8218,2.8309,2.8344,2.8404,2.8393,2.8414,2.842,2.8426,2.843,2.8299,2.8416,2.8416,2.8416,2.8415,2.8415,0,2.7743,2.7775,2.7831,2.7897,2.7945,2.7942,2.7996,2.8037,2.8101,2.8149,2.8203,2.8282,2.8348,2.8392,2.846,2.85,2.8504,2.8517,2.8516,2.8524,2.8434,2.8416,2.8513,2.8513,2.8513,2.8513,2.8513,2.8513,2.7804,2.788,2.7898,2.7994,2.8026,2.8097,2.8128,2.817,2.8209,2.8297,2.8351,2.8379,2.8427,2.8498,2.856,2.8572,2.8598,2.8612,2.8624,2.854,2.853,2.852,2.8503,2.8617,2.8617,2.8709,2.8709,2.871]},{"header":{"parameterUnit":"m.s-1","parameterCategory":1,"la1":30.2991,"la2":30.254,"lo1":-89.0895,"lo2":-89.0444,"dy":0.0017,"dx":0.0017,"nx":28,"ny":28,"refTime":"2025-08-29T03:00:00:Z","depth":0,"parameterNumber":3,"parameterNumberName":"V-component_of_WINDS"},"data":[0,0,0,0,0,0,0,0,0,0,0,0,0,0,0,0,0,0,0,0,0,0,0,0,0,0,0,0,0,0,0,0,0,0,0,0,0,0,0,0,0,0,0,0,0,0,0,0,0,0,0,0,0,0,0,0,0,0,-2.3061,-2.3061,0,-2.305,-2.305,-2.305,-2.3084,-2.3085,-2.3086,-2.3087,-2.3071,-2.3069,-2.3068,0,0,0,0,0,0,0,0,0,0,0,0,0,-2.3108,-2.3107,-2.3061,-2.3061,-2.3061,-2.305,-2.305,-2.305,-2.3084,-2.3085,-2.3087,-2.3088,-2.3071,-2.3069,-2.3068,0,0,0,0,0,0,0,0,0,0,0,0,0,-2.3091,-2.3107,-2.3061,-2.3077,-2.3078,-2.305,-2.305,-2.305,-2.3084,-2.3085,-2.3087,-2.3088,-2.3072,-2.307,-2.3067,-2.3022,0,0,-2.3061,-2.306,0,0,0,0,0,0,0,0,-2.3092,-2.309,-2.3075,-2.3076,-2.3077,-2.307,-2.306,-2.304,-2.3083,-2.3081,-2.3087,-2.3089,-2.3069,-2.3067,-2.3061,-2.3021,-2.3021,-2.3061,-2.3059,-2.3058,-2.3058,0,0,0,0,0,0,0,-2.3093,-2.309,-2.3057,-2.3074,-2.3076,-2.3083,-2.3083,-2.3057,-2.3066,-2.3082,-2.3084,-2.3083,-2.307,-2.3063,-2.3061,-2.302,-2.3061,-2.3059,-2.3057,-2.3057,-2.2945,-2.2943,0,0,0,0,0,0,-2.3093,-2.3091,-2.3057,-2.3056,-2.3089,-2.3081,-2.308,-2.3071,-2.3067,-2.3068,-2.3081,-2.3084,-2.3066,-2.3064,-2.3061,-2.3009,-2.3058,-2.3056,-2.3055,-2.2946,-2.2944,-2.2942,0,0,0,0,0,0,-2.3094,-2.309,-2.3057,-2.3074,-2.3071,-2.3079,-2.3067,-2.307,-2.3063,-2.3066,-2.3068,-2.3073,-2.3067,-2.3064,-2.3032,-2.3008,-2.3055,-2.3053,-2.2948,-2.2946,-2.2943,-2.2903,0,0,0,0,0,0,-2.3095,-2.309,-2.3073,-2.3074,-2.307,-2.303,-2.3066,-2.3068,-2.306,-2.3064,-2.3059,-2.306,-2.3068,-2.3035,-2.303,-2.3006,-2.3052,-2.295,-2.2947,-2.2944,-2.2907,-2.29,-2.2894,0,0,0,0,0,-2.3097,-2.3061,-2.3072,-2.3068,-2.305,-2.3029,-2.3026,-2.3038,-2.3058,-2.3041,-2.3044,-2.306,-2.3012,-2.3032,-2.3026,-2.3001,-2.2952,-2.2948,-2.2944,-2.291,-2.2901,-2.2894,0,0,0,0,0,0,-2.3055,-2.3061,-2.3074,-2.3038,-2.3033,-2.3035,-2.3014,-2.3029,-2.3016,-2.302,-2.3034,-2.3033,-2.2999,-2.2997,-2.3019,-2.2958,-2.2985,-2.298,-2.2961,-2.2953,-2.2946,-2.2947,-2.305,0,0,0,0,0,-2.3042,-2.3026,-2.3032,-2.2999,-2.2996,-2.3005,-2.2997,-2.3007,-2.3001,-2.2999,-2.2999,-2.2992,-2.2975,-2.2964,-2.2949,-2.2907,-2.2907,-2.2887,-2.2881,-2.2875,-2.2871,-2.285,-2.2841,-2.293,-2.293,-2.293,0,0,-2.3014,-2.3016,-2.3004,-2.2991,-2.2988,-2.297,-2.3003,-2.2982,-2.2969,-2.2995,-2.2966,-2.2966,-2.2959,-2.2923,-2.2907,-2.292,-2.2846,-2.2871,-2.2866,-2.2865,-2.2845,-2.2837,-2.2829,-2.2927,-2.2928,-2.2928,0,0,-2.2955,-2.2954,-2.2928,-2.2925,-2.2922,-2.2929,-2.2922,-2.2922,-2.2924,-2.2896,-2.2916,-2.2899,-2.287,-2.2865,-2.2859,-2.28,-2.2814,-2.2794,-2.276,-2.2739,-2.2732,-2.2726,-2.2706,-2.2698,-2.279,-2.2789,-2.2789,0,-2.292,-2.2896,-2.2912,-2.2891,-2.2884,-2.291,-2.2883,-2.2879,-2.287,-2.2864,-2.288,-2.2846,-2.2843,-2.2806,-2.2792,-2.2786,-2.2779,-2.2794,-2.2732,-2.2726,-2.2721,-2.2701,-2.2694,-2.2787,-2.2787,-2.2788,-2.2788,0,-2.2854,-2.2836,-2.2815,-2.2809,-2.28,-2.2775,-2.2787,-2.2776,-2.2788,-2.2792,-2.2764,-2.2762,-2.2747,-2.2739,-2.2749,-2.2704,-2.2713,-2.273,-2.2757,-2.271,-2.2692,-2.2684,-2.2784,-2.2785,-2.2785,-2.2786,0,0,-2.2766,-2.2771,-2.2763,-2.2761,-2.276,-2.2746,-2.2723,-2.2712,-2.2702,-2.2695,-2.2676,-2.2653,-2.2669,-2.2662,-2.2671,-2.2653,-2.2608,-2.2673,-2.2673,-2.2661,-2.256,-2.2547,-2.2538,-2.2618,-2.2617,-2.2616,-2.2561,0,-2.2708,-2.2671,-2.2686,-2.2647,-2.2632,-2.2657,-2.2637,-2.2634,-2.2638,-2.2624,-2.2628,-2.2612,-2.2635,-2.2631,-2.2614,-2.2617,-2.2588,-2.2621,-2.26,-2.2599,-2.2601,-2.2529,-2.2515,-2.2462,-2.2554,-2.2552,-2.2552,0,-2.2635,-2.2629,-2.2589,-2.2593,-2.2587,-2.2569,-2.256,-2.2547,-2.2544,-2.2549,-2.2542,-2.2556,-2.2533,-2.2561,-2.253,-2.2552,-2.2545,-2.2545,-2.2543,-2.2541,-2.2572,-2.2525,-2.2446,-2.2438,-2.254,-2.2541,-2.2542,0,-2.2577,-2.2557,-2.2531,-2.2529,-2.2532,-2.2519,-2.252,-2.2519,-2.2511,-2.2503,-2.2498,-2.2487,-2.248,-2.2471,-2.2481,-2.2501,-2.2449,-2.2477,-2.2451,-2.2451,-2.2439,-2.2439,-2.2357,-2.2434,-2.2434,-2.2434,-2.2434,0,-2.251,-2.2485,-2.2505,-2.2489,-2.2462,-2.2479,-2.2451,-2.2454,-2.2453,-2.2438,-2.2458,-2.2443,-2.2458,-2.2444,-2.2451,-2.2425,-2.2421,-2.2424,-2.2426,-2.2422,-2.2422,-2.2417,-2.2421,-2.2432,-2.2432,-2.2433,-2.2433,0,-2.2439,-2.2452,-2.2426,-2.2432,-2.2433,-2.2413,-2.2418,-2.2403,-2.241,-2.239,-2.2386,-2.2396,-2.2381,-2.2391,-2.2374,-2.238,-2.2345,-2.2352,-2.2347,-2.2349,-2.2323,-2.2325,-2.2234,-2.2224,-2.2307,-2.2306,-2.2305,0,-2.2396,-2.2378,-2.2384,-2.2376,-2.2376,-2.2362,-2.2356,-2.2372,-2.2364,-2.2361,-2.2346,-2.2333,-2.2324,-2.2298,-2.2303,-2.2291,-2.2298,-2.2267,-2.2296,-2.2293,-2.2298,-2.2299,-2.2298,-2.2261,-2.226,-2.2259,-2.2259,0,-2.2319,-2.2327,-2.2317,-2.231,-2.2303,-2.2297,-2.2293,-2.2285,-2.2302,-2.2292,-2.2278,-2.2271,-2.2256,-2.2243,-2.2233,-2.2233,-2.2248,-2.225,-2.2243,-2.2239,-2.2237,-2.2238,-2.2331,-2.2252,-2.2252,-2.2253,-2.2253,-2.2254,-2.2261,-2.2247,-2.2249,-2.2238,-2.2237,-2.2234,-2.2221,-2.2227,-2.2216,-2.2207,-2.2217,-2.22,-2.2199,-2.2188,-2.2186,-2.2172,-2.2184,-2.2175,-2.2172,-2.2169,-2.2166,-2.2239,-2.217,-2.217,-2.2171,-2.2171,-2.2171,0,-2.2185,-2.2188,-2.2178,-2.2174,-2.2165,-2.2183,-2.218,-2.2172,-2.2157,-2.2155,-2.2147,-2.2131,-2.2119,-2.2124,-2.2113,-2.2101,-2.2108,-2.2098,-2.2099,-2.2098,-2.2155,-2.2162,-2.2092,-2.2093,-2.2093,-2.2093,-2.2093,-2.2093,-2.2145,-2.2121,-2.213,-2.2106,-2.211,-2.2095,-2.2092,-2.2089,-2.2088,-2.207,-2.2061,-2.2065,-2.2066,-2.2056,-2.2045,-2.2047,-2.2042,-2.2029,-2.2033,-2.2086,-2.2094,-2.2101,-2.2108,-2.2028,-2.2028,-2.1978,-2.1977,-2.1977]}]]